Location: Famechon
(49.7599°N, 2.0615°E)
Time: 22:14:55
(UTC+00:00)

Cosmos 1741 Rocket - Pass Details

Date: 25 March 2025
Orbit: 758 x 778 km, 74.0° (Epoch: 28 April)

Event Time Altitude Azimuth Distance (km) Brightness Sun altitude
Rises 00:36:53 0° 341° (NNW) 3,233 7.9 -37.7°
Reaches altitude 10° 00:39:33 10° 352° (N) 2,306 7.1 -37.6°
Enters shadow 00:42:26 25° 20° (NNE) 1,517 6.0 -37.5°
